Regional Weather Roundup
Issued by NWS

Home | Current Version | Previous Version | Text Only | Print | Product List | Glossary On
Versions: 1 2 3 4 5 6 7 8 9 10 11 12 13 14 15 16 17 18 19 20 21 22 23 24 25 26 27
000
ASUS44 KLIX 250213
RWRLA
LOUISIANA WEATHER ROUNDUP
NATIONAL WEATHER SERVICE NEW ORLEANS LA
800 PM CST FRI NOV 24 2017

NOTE: "FAIR" INDICATES FEW OR NO CLOUDS BELOW 12,000 FEET WITH NO
      SIGNIFICANT WEATHER AND/OR OBSTRUCTIONS TO VISIBILITY.
      SKY/WX - SKY CONDITION AND SIGNIFICANT WEATHER.
      TMP - AIR TEMPERATURE.    DP   - DEWPOINT TEMPERATURE.
      RH  - RELATIVE HUMIDITY.  PRES - PRESSURE.
      HX  - HEAT INDEX.         WCI  - WIND CHILL INDEX.

*  THESE STATIONS ARE NOT NWS OR FAA STATIONS AND ARE NOT UNDER
   NWS QUALITY CONTROL.

LAZ040-048-061>063-065-066-069-250300-
SOUTHEAST LOUISIANA

CITY           SKY/WX    TMP DP  RH WIND       PRES   REMARKS
N.O. INTL ARPT PTCLDY    54  42  64 S3        29.98S
N.O. LAKEFRONT CLEAR     53  34  48 S5        29.99R
N.O. DOWNTOWN* FAIR      60  40  47 S5        29.99S
RESERVE*       FAIR      51  38  59 CALM      29.99R
SLIDELL        CLEAR     44  39  82 CALM      29.98R
BATON ROUGE    CLOUDY    47  37  68 W6        29.98R
BOOTHVILLE     CLEAR     51  45  79 CALM      30.00R
BELLE CHASSE   PTCLDY    43  43 100 CALM      29.98S
BOGALUSA*      NOT AVBL
GALLIANO*      CLEAR     42  39  88 CALM      29.99S
NEW ROADS*     FAIR      45  40  81 CALM      29.98R
GONZALES*      FAIR      46  39  76 CALM      29.98R
HAMMOND*       CLEAR     43  39  87 CALM      29.98R
HOUMA*         CLEAR     46  40  78 CALM      29.98S
PORT FOURCHON* NOT AVBL

$$

LAZ041-044-053-054-250300-
SOUTHWEST LOUISIANA

CITY           SKY/WX    TMP DP  RH WIND       PRES   REMARKS
LAKE CHARLES   CLEAR     49  44  83 SE3       29.96R
LAFAYETTE      CLEAR     50  38  63 S5        29.98R
PATTERSON      CLEAR     45  40  82 CALM      29.99R
SALT POINT       N/A      1  32 100 CALM      29.98R
NEW IBERIA     CLEAR     47  38  71 CALM      29.98S
CHENAULT AIRPK CLEAR     46  41  81 SE3       29.96S

$$

LAZ027-028-250300-
CENTRAL LOUISIANA

CITY           SKY/WX    TMP DP  RH WIND       PRES   REMARKS
FORT POLK      CLEAR     53  39  59 S6        29.94R
ALEXANDRIA INT CLEAR     49  39  68 S5        29.93S
ALEXANDRIA     CLEAR     43  40  89 CALM      29.95S

$$

LAZ001-002-250300-
NORTHWEST LOUISIANA

CITY           SKY/WX    TMP DP  RH WIND       PRES   REMARKS
SHREVEPORT     PTCLDY    55  42  61 S6        29.90R
BARKSDALE AFB  CLEAR     49  39  68 S6        29.90R
DTN SHREVEPORT CLEAR     61  42  49 S9        29.90R

$$

LAZ014-016-250300-
NORTHEAST LOUISIANA

CITY           SKY/WX    TMP DP  RH WIND       PRES   REMARKS
MONROE         CLEAR     48  38  68 CALM      29.95R
TALLULAH       CLEAR     43  32  65 CALM      29.96R

$$





USA.gov is the U.S. government's official web portal to all federal, state and local government web resources and services.